Theta_e
310 310 310 309 308 308 306 305 306 305 306 305 306 306 306 306 306 306 307 307 307 307 308 308 308 307 308 308 308 309 309 311 313 318 321 316 313 312 312 313 314 315 315 314 314 314 314 314 313 313 314 316 317 318 318 319 332 347 345 339 325 316 318 317 320 323 323 321 319 317 318 321 318 316 314 314 317 316 315 313 312 312 310 311 312 314 315 316
308 307 308 309 309 307 306 305 305 306 305 305 305 306 306 306 306 306 307 307 307 307 307 307 307 307 307 308 308 309 310 314 318 319 319 316 312 312 314 313 314 315 314 314 314 314 315 315 313 313 317 318 316 317 320 319 326 339 341 333 322 321 319 315 319 320 318 318 319 318 318 320 318 317 315 316 317 314 318 316 312 314 312 311 313 314 315 315
310 309 310 311 310 308 307 305 305 305 305 305 306 305 305 306 306 306 307 307 307 307 307 307 307 307 307 308 309 310 312 318 322 319 316 314 313 313 314 314 314 315 315 315 315 314 314 315 312 313 320 318 315 320 324 320 319 329 338 327 319 323 319 314 318 318 317 318 319 318 316 318 317 315 314 317 318 315 321 321 316 316 313 313 312 312 315 314
311 311 311 312 311 309 308 307 305 305 305 306 305 306 306 306 306 306 307 307 307 307 307 307 307 307 308 309 310 311 314 319 320 318 314 312 314 314 314 314 314 315 315 315 315 315 315 314 313 316 320 317 321 325 322 320 319 323 329 324 318 319 318 316 317 317 318 318 320 318 316 317 315 314 316 318 318 317 321 322 321 320 314 314 313 311 313 313
311 311 311 311 311 310 310 309 308 307 306 306 306 306 306 306 306 306 306 306 307 307 307 307 307 308 309 310 311 312 316 319 316 314 313 313 314 314 314 313 314 315 316 316 316 315 314 313 315 321 320 316 324 326 317 316 320 321 319 320 320 318 317 317 317 319 318 318 320 317 315 316 315 315 318 318 319 321 320 319 320 317 312 313 312 311 311 311
309 310 311 311 310 310 311 311 310 309 308 307 307 307 306 306 306 306 306 306 306 307 307 307 307 308 309 311 312 315 316 316 315 313 313 313 313 313 314 313 313 315 316 316 315 315 315 315 317 322 321 317 320 321 316 315 319 322 318 317 319 318 318 318 317 319 319 319 319 317 315 315 316 316 316 317 318 317 314 314 315 312 309 310 310 310 311 310
310 309 310 311 310 309 310 311 310 310 309 308 307 307 307 306 306 306 307 306 306 307 307 309 308 308 311 311 316 320 317 314 315 314 313 313 313 313 313 313 313 315 316 315 315 316 318 320 319 319 323 320 317 317 317 318 322 325 320 317 318 317 319 319 319 320 321 320 317 316 315 315 318 315 315 318 316 312 309 308 308 307 308 308 309 309 309 309
310 310 310 309 309 308 308 310 310 310 309 309 308 307 307 307 306 306 306 307 306 307 308 310 310 310 311 312 317 321 319 317 316 313 313 313 313 313 313 313 313 315 316 315 315 316 318 320 317 317 322 319 316 317 316 319 324 324 319 318 319 318 319 320 320 321 320 318 316 315 315 317 319 314 316 319 313 310 308 306 306 306 308 309 311 309 307 308
309 309 308 307 308 308 308 308 309 310 310 309 309 307 307 307 307 307 306 306 307 307 309 311 312 312 313 314 314 315 316 319 315 313 314 313 313 313 312 313 314 316 316 315 315 315 317 318 316 316 319 317 316 317 317 319 321 320 318 319 319 317 317 318 319 320 319 318 316 316 317 319 317 313 316 317 312 311 309 309 309 309 311 312 313 308 305 307
310 309 308 308 307 306 307 309 309 310 310 309 309 307 307 307 307 307 306 306 307 309 310 311 312 313 314 314 312 311 316 318 315 314 314 313 313 312 313 314 315 316 316 316 315 315 316 316 315 315 318 318 317 316 316 318 319 319 319 319 319 319 318 318 318 320 319 317 316 316 319 318 315 314 317 316 310 310 311 311 311 312 313 312 311 308 305 306
312 311 311 311 309 307 306 307 308 309 309 309 308 307 307 307 307 307 307 307 308 310 311 313 313 313 314 314 314 314 316 317 314 314 314 313 314 313 314 315 315 316 316 316 314 314 315 314 313 314 317 317 316 317 316 315 316 317 318 318 320 321 319 318 317 317 317 316 317 318 318 316 313 315 320 316 310 310 311 312 311 312 312 310 311 308 305 305
313 312 312 312 312 310 308 306 306 308 310 310 308 307 308 307 307 307 308 308 309 311 312 313 313 315 315 313 315 317 318 317 315 314 314 314 314 314 315 315 315 316 316 316 315 314 314 314 315 316 318 316 317 318 315 315 315 316 317 318 324 326 322 319 318 317 316 316 317 317 316 318 316 316 318 313 309 310 311 311 311 312 311 311 311 309 306 304
313 312 312 312 312 312 311 308 307 309 312 312 309 308 308 308 307 308 308 309 311 312 313 314 314 315 314 313 315 316 318 320 316 316 315 315 315 315 315 315 315 316 317 317 315 313 313 315 316 317 317 318 319 316 315 315 315 317 317 317 323 326 325 320 315 316 316 315 318 316 318 327 326 318 315 309 308 311 311 311 310 310 311 311 310 310 309 304
315 313 312 312 313 312 312 310 310 312 313 312 310 309 310 309 308 309 309 310 312 313 314 314 315 315 313 315 316 315 319 320 318 317 316 316 316 316 316 315 315 316 317 316 314 313 314 315 315 316 315 317 317 313 319 322 319 319 315 321 325 320 329 327 316 317 316 314 316 317 319 326 327 319 312 308 308 311 312 311 309 310 310 310 310 310 310 305
315 315 314 313 313 313 312 311 311 312 312 312 311 311 311 310 310 310 311 313 314 314 313 313 315 316 316 317 316 315 318 319 319 317 316 316 316 316 315 315 315 315 315 315 314 313 314 315 317 319 315 315 317 319 327 329 328 326 315 327 331 318 331 334 316 316 317 314 313 316 320 320 321 319 312 308 308 310 312 311 309 310 309 309 309 308 309 305
316 316 315 314 313 312 312 311 311 311 311 311 312 311 310 311 313 312 313 313 314 315 315 315 315 315 317 318 315 316 317 318 318 317 316 316 316 316 314 314 314 314 315 314 314 314 314 317 317 317 317 316 322 332 336 330 333 337 321 326 333 322 326 328 317 316 317 315 313 314 321 322 320 316 310 308 309 310 312 311 309 310 309 308 308 307 307 305
316 316 315 314 313 312 311 312 311 310 311 313 312 311 312 313 314 313 313 313 315 318 317 316 315 313 313 315 315 318 317 316 317 317 316 316 316 316 314 314 313 313 314 313 314 315 314 317 316 316 321 320 323 333 334 325 329 336 324 321 331 325 321 325 322 317 314 316 315 314 316 319 320 315 309 309 309 310 311 311 310 309 308 307 307 307 306 305
315 316 316 315 314 313 312 312 311 310 312 313 312 313 314 314 314 314 314 314 315 315 315 315 313 311 312 313 315 318 317 315 317 316 316 317 316 315 314 314 312 313 316 316 315 315 316 321 321 322 323 318 320 326 327 325 328 334 327 323 327 324 320 324 324 318 314 315 316 315 315 315 316 315 312 309 308 310 311 310 309 308 308 308 308 307 306 305
315 315 316 315 314 313 313 313 311 310 313 313 314 316 314 312 315 316 315 316 316 311 311 315 312 311 313 314 316 317 316 315 316 316 316 317 315 314 315 313 315 317 318 318 316 317 321 325 324 323 322 319 319 321 323 327 331 334 332 330 329 326 323 324 324 320 316 315 316 316 315 315 314 314 315 311 309 310 310 309 309 309 308 308 308 307 306 305
316 315 315 315 315 314 314 313 311 311 313 314 316 316 314 316 316 316 318 320 320 314 315 318 313 314 316 317 318 317 316 316 315 316 316 315 314 314 314 313 318 320 319 324 320 316 321 325 324 324 323 322 319 319 320 322 324 327 328 328 328 327 325 325 324 320 315 315 319 317 315 315 315 314 315 312 310 310 310 310 310 310 309 308 308 307 306 305
316 315 316 315 315 314 314 314 311 311 313 313 315 317 319 321 314 314 322 323 318 314 318 319 313 314 316 316 317 315 317 317 315 316 316 314 314 315 316 315 319 320 320 326 322 315 319 323 325 325 321 319 319 318 317 318 319 320 322 323 324 324 324 323 322 318 314 315 321 320 316 315 314 314 314 313 312 311 310 310 310 310 309 308 307 307 307 305
316 316 316 315 315 315 315 314 312 311 313 313 314 316 319 318 314 314 317 320 319 315 316 317 314 316 316 315 316 315 318 320 317 317 316 313 315 316 317 318 321 322 320 321 321 319 320 322 322 320 318 318 318 318 317 318 319 319 320 319 322 324 322 323 324 318 314 316 324 324 319 317 317 315 315 315 314 312 310 310 310 310 309 308 308 307 306 306
317 316 316 316 315 315 315 314 312 311 313 314 313 314 316 316 316 316 313 316 322 319 317 318 316 317 317 315 316 315 318 321 321 319 316 313 315 317 317 318 319 321 319 319 323 324 324 326 322 316 317 319 318 319 318 317 318 320 321 319 322 324 321 324 325 318 316 317 320 322 319 318 317 317 317 316 314 312 311 311 310 310 310 308 307 307 306 305
318 317 317 317 316 315 316 314 313 312 313 314 313 314 317 316 315 317 317 318 320 320 319 317 315 317 318 315 315 317 317 319 321 319 315 313 315 316 317 318 319 319 318 319 322 323 323 326 321 316 318 319 319 320 320 320 321 322 322 321 321 322 322 324 323 321 325 326 320 319 321 323 322 320 319 318 314 313 313 313 312 310 310 310 308 307 306 305
319 318 318 317 316 316 315 313 313 313 313 314 313 313 316 316 315 316 319 319 320 321 318 314 316 319 317 314 315 317 317 318 320 318 314 313 315 316 316 317 319 320 318 317 319 320 320 320 320 321 319 319 320 321 322 324 323 323 324 322 320 322 323 324 323 322 330 334 323 318 326 335 335 327 322 321 317 316 315 314 313 310 310 311 309 308 306 304
320 319 318 318 317 316 315 313 312 312 314 314 312 313 316 316 316 315 317 320 321 320 318 315 317 318 315 315 315 316 317 319 319 316 313 313 313 316 317 316 318 320 318 317 318 319 319 318 321 327 324 322 322 321 323 323 320 324 327 324 321 322 323 325 326 324 329 333 323 320 328 334 332 327 326 327 324 322 320 316 313 311 311 310 308 308 306 304
321 320 319 318 318 316 314 313 313 313 315 315 312 313 316 316 316 315 316 324 324 319 320 317 314 315 316 316 314 314 317 317 317 315 313 313 313 315 318 317 316 317 317 318 320 319 320 319 320 325 326 326 324 322 324 321 321 327 327 325 324 321 323 325 325 326 329 329 325 325 328 327 325 323 325 328 328 327 324 319 315 311 310 310 308 307 305 304
322 321 320 319 318 317 314 314 314 313 315 316 312 313 316 315 316 317 319 328 326 318 320 318 313 313 316 314 313 314 316 317 318 316 313 313 314 315 317 318 317 317 317 319 320 319 320 323 322 322 324 325 324 324 324 320 322 327 324 324 326 324 327 328 326 327 326 325 329 329 325 325 328 326 323 323 324 327 325 322 319 314 311 309 307 307 305 304
322 321 320 319 318 317 315 315 314 314 315 315 314 315 315 314 318 322 323 327 326 319 319 317 315 315 315 314 314 316 316 318 319 317 313 312 313 314 316 318 317 317 317 317 320 319 319 321 321 321 322 322 324 326 324 321 321 322 322 324 327 326 330 333 332 331 329 327 329 330 325 325 329 329 325 322 323 327 325 322 319 316 313 309 307 306 305 303
321 320 320 319 318 316 315 315 315 314 315 315 315 315 315 318 323 325 325 326 327 324 317 315 317 317 317 315 315 317 318 319 317 315 315 315 315 315 315 316 318 321 320 317 320 322 319 316 315 319 321 321 324 323 321 323 320 320 326 330 331 330 331 334 332 329 330 328 327 330 327 325 328 329 326 324 326 328 324 323 324 319 314 310 307 305 304 303
321 320 320 319 318 316 315 315 315 315 315 316 316 314 316 322 322 323 325 324 324 324 317 315 318 317 316 317 317 318 319 318 316 316 317 316 316 318 317 316 319 323 322 319 322 322 320 317 318 319 320 322 325 320 318 321 319 323 334 335 330 331 331 332 331 329 330 329 327 329 325 324 327 326 324 325 324 323 322 324 329 327 317 309 306 304 303 303
321 321 321 319 318 317 316 315 315 316 316 316 315 316 320 323 320 323 326 323 324 326 320 319 320 317 317 318 318 318 319 319 316 317 319 317 317 318 317 318 320 321 322 322 322 322 321 323 322 317 316 321 326 324 321 320 319 324 332 330 327 329 329 329 330 329 329 326 322 321 322 323 325 325 326 326 323 324 324 322 324 324 317 310 306 304 303 302
321 321 320 319 318 317 316 316 315 316 317 315 315 319 323 324 323 324 325 327 328 325 321 322 320 318 318 320 321 318 318 320 317 317 318 317 319 317 317 319 319 322 325 322 320 322 324 324 321 317 318 321 322 323 323 322 322 322 325 327 327 328 331 333 331 327 327 326 319 316 321 324 325 326 324 323 323 326 325 321 320 319 316 311 306 304 303 302
321 320 319 319 318 317 316 316 315 316 316 315 317 321 323 324 325 323 324 327 327 321 321 322 319 318 318 321 322 318 319 321 317 318 319 318 320 320 319 320 317 323 328 322 319 323 325 324 322 319 321 322 320 320 324 325 322 319 322 326 325 327 333 336 333 330 330 328 320 316 322 328 330 328 321 319 323 325 325 320 316 315 312 309 306 304 303 301
320 320 318 318 318 317 316 315 315 316 316 316 318 321 322 324 324 324 324 324 324 322 321 320 319 320 320 322 322 319 320 322 317 318 320 319 320 320 320 319 316 321 326 321 321 322 321 325 327 320 319 321 319 319 324 326 322 320 324 326 325 328 330 327 327 327 327 327 322 319 324 327 327 324 319 318 320 320 320 318 315 315 311 308 307 304 302 301
317 318 317 317 317 316 316 315 315 316 316 316 319 321 322 324 324 325 323 321 322 323 321 319 321 322 322 322 322 319 320 323 319 319 321 319 319 320 319 319 316 318 319 319 324 324 322 326 324 317 318 320 318 321 323 324 324 321 321 324 323 323 324 323 324 321 321 326 326 322 324 326 325 323 319 318 321 320 318 318 317 315 310 308 306 303 302 301
315 316 316 316 317 317 316 315 316 316 316 317 320 321 321 322 324 324 322 320 320 321 322 322 322 323 322 321 322 321 320 322 319 319 322 319 320 320 318 319 318 316 316 317 323 325 324 327 322 316 320 318 315 321 323 320 321 323 324 324 320 320 325 329 329 326 326 328 327 324 324 326 327 325 320 316 319 321 320 319 317 312 308 308 305 302 302 301
314 316 317 317 317 317 316 315 316 316 316 318 319 319 320 322 323 323 321 320 320 320 322 323 322 322 322 321 323 321 320 321 319 318 321 320 320 321 318 319 319 316 315 315 320 324 322 324 322 316 319 317 313 320 323 317 316 322 326 323 322 327 329 327 328 330 330 329 329 326 323 322 322 324 323 320 320 322 320 318 317 314 311 307 304 303 302 301
314 316 317 317 317 317 316 315 316 316 318 319 318 318 320 321 321 322 321 319 319 322 322 322 322 322 322 321 322 321 320 321 319 318 321 320 321 321 317 318 320 316 315 315 317 323 322 323 324 316 315 316 315 318 323 320 316 317 320 319 321 326 327 326 327 329 330 330 331 329 325 324 324 323 325 323 323 324 320 317 318 316 311 305 303 303 301 300
314 316 317 317 316 317 316 315 316 316 318 319 317 317 319 319 319 321 322 320 321 323 322 322 323 323 322 321 321 321 320 320 318 318 321 320 320 321 317 317 320 318 315 314 316 320 320 322 324 318 313 317 320 320 321 321 318 317 320 321 320 320 322 325 325 325 330 331 332 331 327 327 326 323 323 323 322 322 320 320 320 315 309 305 303 302 301 300
314 316 317 317 316 317 315 315 317 317 319 318 316 316 317 318 318 319 321 321 323 323 321 321 323 323 323 321 321 322 321 320 319 318 320 319 319 322 319 316 320 319 315 315 318 319 320 324 326 323 318 319 323 321 317 318 319 319 320 321 320 319 321 325 324 325 328 327 330 330 327 326 324 321 322 322 319 318 317 318 320 316 310 307 303 302 301 300
314 315 316 317 316 316 316 317 318 318 318 316 315 316 316 317 319 319 319 320 322 322 321 322 323 322 322 322 321 322 321 321 320 318 320 320 319 323 322 318 318 318 316 317 317 317 324 328 328 325 321 320 320 316 314 318 320 318 320 322 321 319 320 324 325 325 325 324 326 326 325 326 322 319 324 323 319 319 316 314 316 316 311 307 303 302 301 300
315 315 316 316 316 316 317 318 319 318 317 314 314 315 315 316 318 318 318 319 320 321 321 323 323 321 322 323 322 322 321 322 321 319 321 321 319 321 323 321 319 318 317 319 318 318 322 324 324 324 322 320 320 317 315 317 318 317 321 323 321 319 320 323 325 325 326 325 324 324 325 324 318 315 320 319 317 320 318 314 314 314 312 308 305 302 301 300
315 315 315 316 315 316 318 319 319 319 317 314 314 314 314 315 317 317 317 318 320 320 320 321 322 322 323 324 323 322 321 322 323 321 321 323 321 321 322 323 320 318 319 321 320 319 320 322 324 325 325 324 324 322 318 317 317 318 321 320 318 319 320 322 322 323 324 325 324 325 326 322 318 315 316 317 317 319 319 316 313 313 313 310 305 302 301 300
315 315 315 315 314 316 318 319 318 319 318 316 315 314 313 314 316 317 317 317 318 319 320 321 322 322 322 322 323 323 322 324 324 322 322 322 321 319 320 322 321 318 320 323 322 319 322 326 324 324 326 327 326 325 322 320 318 318 321 320 317 319 320 320 322 322 323 324 324 325 324 322 321 318 315 318 320 320 322 319 314 312 312 309 305 303 301 300
314 315 315 314 314 315 318 318 318 319 318 317 316 313 313 314 315 316 317 318 318 317 319 321 321 322 322 322 323 324 324 324 324 325 324 323 323 321 317 318 321 320 321 325 323 319 323 326 322 322 325 325 326 327 323 321 320 319 320 320 318 318 319 320 322 322 323 324 323 322 322 322 322 320 318 321 323 325 327 324 319 316 312 309 305 302 301 300
311 314 315 315 314 314 315 316 318 319 317 317 317 315 314 314 315 315 316 318 318 318 318 320 320 321 322 322 323 323 323 322 322 323 323 322 324 320 314 314 318 318 318 321 319 319 322 324 322 323 323 322 326 328 322 319 321 320 319 319 318 318 318 320 321 321 323 325 324 322 322 322 321 320 320 320 322 324 326 326 325 320 311 307 305 302 302 301
309 311 311 313 315 315 313 312 315 318 318 317 317 316 315 314 314 316 316 316 317 318 319 319 319 320 321 322 323 322 323 323 322 322 322 322 322 319 314 314 314 314 316 317 316 320 324 323 322 323 323 321 323 323 319 318 319 319 319 319 318 318 318 319 320 320 321 323 323 322 323 323 321 319 320 320 320 320 321 321 321 316 310 307 305 303 302 301
308 307 306 308 311 313 312 312 313 316 317 318 317 316 316 315 315 315 316 316 316 317 319 319 319 319 320 321 322 322 321 322 322 322 321 321 322 320 319 318 315 314 317 317 315 318 322 322 322 322 322 322 322 321 320 320 320 319 319 318 318 318 317 317 318 318 319 321 321 321 322 321 320 319 320 322 321 318 318 318 317 314 312 309 306 304 302 300
307 307 307 307 308 308 309 312 312 312 313 315 317 317 316 315 315 314 315 316 316 316 318 319 318 318 319 319 320 321 321 321 322 321 321 321 322 321 321 323 320 315 315 316 315 316 319 320 320 320 322 322 321 320 321 322 321 320 320 319 317 317 316 316 317 317 318 319 319 319 321 320 319 320 321 322 320 316 316 316 315 314 311 308 305 303 302 301
305 306 306 307 308 307 308 309 311 312 311 311 313 315 316 316 315 315 314 315 316 316 317 318 318 317 318 318 319 320 319 319 320 320 321 321 320 320 320 321 319 315 314 316 316 316 318 318 317 318 321 322 321 320 321 320 320 320 321 320 318 317 316 315 316 316 317 318 319 319 320 319 319 321 321 320 320 318 317 316 314 312 310 309 307 304 302 301
304 304 305 306 307 307 307 308 310 313 313 312 311 312 314 315 315 315 316 315 316 316 316 316 317 317 318 318 319 319 319 319 320 321 321 319 318 319 320 320 319 318 317 316 316 317 317 317 317 318 321 321 321 321 320 319 320 321 321 320 319 317 316 316 315 316 316 317 318 319 319 317 318 320 320 319 319 318 317 317 315 313 310 308 307 305 303 302
Wind_Speed
3 4 5 5 5 4 4 3 3 3 2 2 2 2 3 4 4 3 4 3 3 3 3 4 5 5 6 7 8 8 8 7 3 2 4 3 3 5 5 5 4 4 4 4 6 5 5 7 10 12 7 2 3 2 3 3 3 5 4 4 3 2 2 4 6 6 4 5 5 5 3 7 4 0 2 4 8 5 4 5 3 6 6 6 7 8 7 8
2 3 3 3 4 4 3 3 3 3 3 3 3 2 2 3 4 4 4 3 4 4 4 4 5 6 6 7 8 8 9 6 1 2 3 4 6 7 7 6 5 5 5 5 7 8 6 5 10 10 6 2 3 2 2 3 3 4 3 4 2 5 2 3 6 5 4 6 6 3 3 5 5 3 3 2 1 2 5 3 3 5 5 6 8 9 9 11
1 2 2 2 2 3 4 3 3 3 3 3 3 2 2 3 3 4 4 4 4 4 5 5 5 6 6 7 8 9 9 4 1 1 3 7 9 9 8 6 6 6 5 5 6 7 4 4 6 5 4 2 2 3 3 4 3 2 4 4 3 6 2 1 3 4 3 6 7 2 1 3 3 2 2 4 3 1 3 3 2 2 4 4 5 8 11 12
1 1 1 1 1 2 3 3 3 3 2 2 2 2 3 2 3 3 4 4 5 5 5 5 6 6 7 7 7 9 8 3 0 2 6 10 10 9 8 6 6 5 4 5 6 5 5 4 3 3 4 2 3 4 3 3 2 2 3 3 5 4 3 1 2 2 2 5 7 3 4 4 2 1 3 6 5 2 6 7 7 8 9 7 5 8 10 12
2 2 2 1 1 1 1 2 2 2 2 2 2 3 3 2 2 3 4 5 5 5 5 5 6 6 7 8 7 8 6 4 2 4 10 11 10 9 7 6 5 4 4 6 5 4 5 4 5 5 4 2 4 5 2 3 2 3 2 3 5 4 3 3 3 2 3 4 5 5 4 3 1 1 4 8 6 5 6 6 7 8 10 9 8 9 10 11
4 4 3 2 2 1 0 0 0 0 1 1 2 2 2 3 3 3 4 5 5 5 5 5 5 6 7 7 7 6 2 2 3 8 11 11 10 8 6 4 4 4 4 4 5 6 5 5 6 4 3 3 2 3 0 4 3 4 2 2 2 3 4 3 3 2 4 6 4 4 3 2 2 0 3 7 6 5 3 3 7 8 11 13 11 10 8 8
5 5 4 3 2 2 1 1 1 1 1 1 1 2 2 2 3 3 4 4 5 4 4 4 5 6 6 6 5 3 2 2 4 11 12 10 9 7 5 2 3 3 2 4 6 5 4 6 6 3 4 4 1 2 1 4 5 5 1 2 1 2 5 5 4 4 6 7 5 4 3 2 5 3 1 4 4 2 0 6 11 12 14 14 11 9 8 9
5 5 5 5 4 4 3 3 2 1 1 2 2 2 3 3 3 4 4 4 4 4 4 4 5 5 5 4 1 3 2 3 7 13 12 10 9 7 4 1 1 1 2 5 6 2 3 6 3 3 4 2 2 2 1 4 6 4 2 2 1 0 2 3 4 5 5 5 3 4 3 5 5 3 1 4 5 3 4 7 11 12 12 11 8 8 9 10
7 6 6 6 6 6 6 4 3 2 2 2 2 3 4 4 4 4 4 4 4 4 4 3 4 5 5 3 3 1 4 4 10 13 11 10 9 6 4 1 1 0 3 4 5 4 3 3 1 2 3 2 2 2 1 3 1 1 3 1 0 1 2 2 3 4 5 3 4 4 2 6 3 2 2 4 7 5 5 7 7 9 8 7 7 7 10 10
8 8 8 8 8 8 7 6 4 4 3 3 2 3 4 5 5 5 5 5 4 4 3 3 4 3 3 2 5 1 4 5 11 13 11 11 9 7 5 2 2 1 2 4 5 6 3 3 2 3 5 2 2 1 2 3 2 2 4 2 1 2 3 3 4 5 2 1 5 6 4 4 3 1 3 4 7 6 7 6 5 7 7 6 6 6 10 10
8 8 8 8 9 10 9 8 7 5 4 3 3 4 5 5 5 5 5 5 4 3 3 3 3 3 2 2 5 3 3 5 11 12 11 10 9 7 6 4 3 2 2 4 5 6 4 2 2 3 2 1 1 2 2 1 2 2 3 1 4 5 5 3 5 5 2 1 5 7 3 3 3 1 5 6 8 6 8 7 5 7 5 6 6 5 8 9
8 8 8 9 9 10 10 10 9 7 5 4 4 5 5 5 4 4 5 5 4 3 3 3 3 2 1 2 2 6 4 6 10 12 11 10 9 8 5 4 4 3 2 3 5 5 5 2 4 5 0 2 1 2 0 1 2 1 3 2 6 7 5 5 4 4 5 2 5 7 1 5 3 5 5 5 9 6 8 7 5 6 5 5 5 4 5 7
9 9 9 9 9 10 10 10 10 8 6 5 5 6 5 5 4 3 4 5 4 4 3 3 3 1 2 1 4 7 7 8 10 11 11 10 9 8 6 4 4 3 2 4 4 4 5 3 6 5 2 4 1 1 2 2 3 0 2 1 4 7 5 6 1 4 6 3 5 6 2 6 7 8 4 5 10 8 7 7 6 6 5 5 5 4 4 6
9 9 9 9 9 10 10 10 9 7 7 6 5 5 6 5 4 4 4 5 4 3 3 3 2 2 2 3 4 5 8 8 9 11 11 10 9 7 6 4 3 3 3 4 5 4 4 3 7 6 2 3 1 1 3 5 3 0 1 2 2 2 4 7 1 6 6 3 3 6 2 7 9 8 4 6 9 10 9 8 7 6 6 5 5 5 4 6
10 9 9 9 9 10 10 9 9 8 6 5 5 5 5 3 3 3 4 5 4 4 3 3 3 3 2 4 4 4 8 8 10 12 11 11 10 7 6 6 4 4 4 4 5 4 3 4 6 4 0 2 3 3 4 4 3 2 1 3 3 2 5 8 3 8 7 2 2 5 2 7 9 7 6 7 7 9 9 8 8 7 7 6 5 5 5 5
13 11 10 9 9 10 9 8 10 9 4 3 4 4 3 1 2 3 4 4 5 4 3 2 3 3 1 3 1 3 7 8 9 12 12 12 9 6 8 8 5 5 5 4 5 4 4 5 3 2 1 2 4 5 4 4 4 3 1 3 3 2 3 6 3 4 5 3 1 3 3 4 5 4 4 7 7 8 7 8 9 8 8 7 6 5 5 5
15 14 12 10 10 9 7 7 8 7 3 2 4 3 1 1 2 3 3 5 6 5 4 3 2 2 0 1 1 3 6 8 11 14 14 11 8 9 11 7 4 6 6 5 5 3 4 5 1 1 2 3 3 5 3 2 3 4 0 3 4 3 2 3 4 3 2 5 4 5 4 6 6 3 3 7 7 8 8 9 10 8 7 7 6 6 6 6
16 15 13 11 11 8 6 6 6 5 3 3 3 1 3 3 2 3 5 8 8 7 4 2 3 1 3 3 4 3 5 9 12 15 14 10 10 12 9 5 5 7 6 4 4 3 3 4 2 1 2 1 2 5 3 5 4 3 3 2 3 3 3 4 4 2 5 4 5 5 5 11 11 6 5 7 7 9 10 9 8 8 8 7 7 7 7 7
16 15 14 12 11 9 7 6 4 5 3 3 2 4 5 4 2 3 5 6 5 4 1 3 4 3 4 4 3 3 6 11 12 13 12 11 12 10 7 6 6 6 5 2 2 1 2 3 4 2 1 4 5 6 8 8 7 7 5 4 4 3 4 5 5 5 7 4 5 8 8 11 13 10 8 8 7 9 10 7 5 7 7 7 8 7 8 7
16 16 14 12 12 10 8 6 4 5 3 3 3 4 4 2 2 1 1 2 4 4 1 5 7 3 0 1 4 8 9 8 6 8 12 13 14 9 5 4 6 5 3 4 2 1 3 4 2 4 8 9 9 10 9 6 6 5 4 3 4 4 5 5 4 6 5 5 6 9 9 11 11 11 9 7 7 9 10 9 8 8 8 9 10 9 9 8
17 16 14 13 12 10 9 6 4 6 4 4 4 3 3 3 3 2 2 4 10 11 5 5 5 2 1 3 10 12 7 3 1 5 13 13 12 9 2 2 5 1 2 4 3 1 4 4 7 11 11 9 8 8 7 4 3 2 3 3 4 4 6 6 4 5 2 4 6 6 7 11 11 11 9 5 8 11 13 13 12 12 11 10 10 10 9 6
17 16 15 14 12 10 9 6 5 8 5 5 4 2 2 2 2 1 2 1 10 15 13 8 4 6 4 4 12 10 4 2 0 4 12 10 8 7 2 3 5 3 2 3 4 1 2 4 12 13 6 5 4 6 6 5 5 4 2 2 5 4 4 7 5 3 0 3 5 4 4 9 11 11 9 7 10 11 13 15 15 14 13 12 11 11 9 8
17 17 15 14 13 11 9 6 6 8 8 8 7 4 2 1 2 2 2 0 5 7 8 8 7 6 4 2 10 10 2 4 4 5 11 10 5 5 5 5 5 4 4 5 5 5 4 6 13 10 6 6 4 4 6 3 3 5 3 3 5 3 2 4 5 3 1 2 3 3 4 7 8 8 9 11 10 8 8 12 13 12 13 13 13 12 12 13
18 18 16 15 14 12 10 7 7 10 11 11 11 9 6 5 2 2 1 0 4 4 5 10 8 6 8 6 10 12 3 4 5 6 14 12 5 3 5 6 5 5 5 9 9 7 7 7 5 6 8 8 6 4 6 4 4 5 6 6 6 5 6 6 4 3 3 4 2 3 6 7 7 10 12 6 4 6 6 8 12 11 10 9 9 10 11 13
21 19 18 17 15 13 11 8 10 14 12 10 14 13 9 6 3 2 1 1 3 5 3 6 5 6 12 10 11 10 2 3 5 9 18 16 9 4 3 3 4 5 7 8 7 7 8 5 3 7 7 7 7 6 6 7 5 5 6 10 10 8 8 5 1 4 4 5 4 2 3 7 5 9 12 3 1 7 5 7 13 12 9 8 9 10 10 10
24 22 20 19 17 16 12 6 13 15 10 10 13 12 10 6 4 2 2 3 4 4 1 4 4 8 12 10 9 7 1 5 5 11 20 18 11 5 3 3 2 4 7 5 4 4 5 5 5 7 7 7 7 5 6 8 6 4 6 10 11 8 7 5 3 2 1 4 4 2 2 7 6 6 9 4 4 9 7 8 12 10 8 10 10 10 11 11
28 25 23 21 20 21 14 5 11 14 7 10 11 14 14 9 5 3 2 3 5 3 4 2 2 7 10 10 12 8 3 5 2 8 14 14 9 2 2 6 2 3 4 4 3 3 4 7 6 6 6 7 6 5 7 8 7 4 5 7 9 8 7 6 6 4 3 3 4 3 3 5 9 6 6 6 7 9 10 12 13 10 10 10 10 10 11 11
33 30 27 24 24 27 18 6 13 17 7 4 12 19 16 11 6 2 3 0 4 3 4 1 1 4 4 8 13 8 2 3 5 4 4 7 7 1 2 8 6 7 6 6 5 3 4 8 10 9 6 5 6 5 7 10 6 6 3 6 7 6 5 4 5 3 1 2 4 4 1 3 9 5 1 2 7 9 12 16 16 12 11 11 10 9 10 10
36 33 31 27 26 29 21 9 13 18 10 8 17 21 17 12 5 4 3 3 2 2 1 1 2 1 3 6 9 4 2 1 2 3 1 3 4 2 3 7 6 7 7 7 8 2 2 6 9 9 7 7 6 2 7 11 6 4 5 7 6 5 5 5 4 3 2 1 6 6 3 3 8 3 2 1 4 9 12 14 13 10 11 11 9 9 9 9
37 35 34 30 29 32 26 15 15 17 11 11 19 22 17 8 3 4 4 4 0 0 0 1 2 2 7 9 5 1 3 2 0 1 3 1 1 3 1 2 5 5 3 5 6 3 2 2 2 4 4 5 5 3 3 8 7 6 7 7 7 6 5 4 2 4 1 4 6 9 9 6 7 2 4 3 4 7 9 9 9 7 8 10 9 9 10 10
36 34 34 34 34 35 26 17 21 19 13 16 23 21 12 4 3 4 6 1 1 1 2 1 1 4 11 12 6 3 3 1 1 4 3 1 2 3 0 1 3 3 1 5 5 4 4 2 1 1 2 4 6 4 2 1 5 6 5 5 4 4 4 4 4 4 2 6 5 8 10 9 9 5 4 5 5 5 7 7 9 8 8 9 9 9 10 10
36 35 36 38 38 38 27 19 26 24 16 23 25 13 5 3 2 5 3 1 0 3 5 3 3 6 9 8 6 7 5 2 3 6 7 5 5 6 6 6 5 3 3 6 4 2 3 4 3 2 1 4 6 4 4 4 2 4 5 6 4 2 2 2 3 0 4 6 4 4 5 5 10 8 5 8 9 8 8 8 9 7 7 9 10 10 10 9
35 36 39 41 40 40 33 23 27 27 23 26 18 5 3 4 6 7 6 4 2 2 3 3 3 8 11 7 5 5 3 2 5 5 4 5 6 8 6 5 5 2 2 5 4 2 3 5 1 1 3 3 8 7 3 1 4 6 6 6 5 3 1 3 4 2 4 5 4 1 3 3 6 4 9 13 12 8 7 8 8 6 7 9 10 10 9 9
31 37 40 42 41 41 36 27 27 30 29 23 10 3 6 6 5 8 11 8 2 1 1 3 6 7 8 6 4 6 4 3 5 5 2 5 5 6 5 6 7 2 3 4 3 5 4 6 4 8 4 6 10 9 7 5 5 7 6 6 6 6 4 4 4 4 4 3 3 1 2 3 2 2 7 9 7 5 5 6 5 6 6 6 7 8 9 10
23 35 39 39 40 39 36 30 31 35 29 16 6 6 8 6 4 6 9 7 3 2 2 2 7 7 5 3 2 7 6 2 5 5 3 5 5 6 6 8 9 5 4 4 2 3 5 7 7 6 2 8 11 6 5 7 3 4 3 4 5 6 5 3 3 5 3 2 3 3 4 5 4 5 6 5 6 6 6 7 4 5 3 5 6 8 10 10
14 23 30 32 34 37 37 33 35 38 26 10 7 8 8 8 6 5 6 7 6 4 5 2 4 5 6 3 3 6 4 2 5 5 3 4 4 6 6 6 9 10 8 6 2 2 3 5 5 1 2 4 7 4 4 4 3 2 3 4 4 4 5 3 3 1 3 3 4 3 6 6 3 7 7 6 8 8 6 7 6 5 3 6 7 8 10 10
8 11 20 26 31 35 37 35 39 37 20 8 9 9 7 7 7 6 6 8 9 8 7 4 3 6 7 5 4 7 4 2 5 5 4 3 3 6 7 4 7 14 13 7 3 3 4 4 4 2 2 4 1 3 3 3 3 5 3 6 2 2 2 2 2 3 2 4 5 3 8 6 2 6 3 2 6 9 8 8 7 5 4 7 8 8 9 10
8 6 11 22 32 34 35 38 40 28 10 6 10 9 6 7 7 7 6 7 9 10 8 8 7 7 8 7 6 7 7 5 6 6 4 3 5 7 10 6 5 14 15 8 3 3 4 3 4 1 3 3 3 3 1 5 3 5 4 5 4 1 1 2 2 2 1 3 5 2 5 5 7 6 1 3 9 11 11 9 7 7 9 9 8 8 9 8
7 3 6 18 31 32 35 40 33 15 4 6 10 9 6 7 6 5 5 6 8 9 10 10 7 5 7 8 6 7 9 8 8 7 4 5 5 5 11 8 5 10 13 10 7 3 3 3 3 1 1 1 3 3 5 0 2 3 2 3 2 2 3 3 3 3 3 3 4 2 3 5 7 7 7 10 12 12 12 9 8 12 13 9 8 9 9 10
6 3 3 12 25 32 38 36 19 6 5 8 9 6 4 5 4 4 4 5 4 6 9 10 8 6 6 7 6 6 8 7 9 8 5 6 5 4 7 8 5 7 10 12 10 4 2 3 3 2 2 1 2 4 8 9 6 4 4 5 3 1 2 1 1 2 4 2 3 3 6 8 4 5 9 12 11 12 11 10 11 13 10 9 9 10 10 10
4 5 3 11 26 35 34 20 7 6 7 8 9 7 4 3 4 5 2 1 0 1 3 6 8 7 6 7 6 5 6 6 7 7 5 6 6 4 6 9 9 7 7 7 8 4 3 3 3 2 1 3 5 4 6 9 8 7 7 9 8 6 5 2 3 2 3 2 4 3 8 11 4 3 5 6 7 9 10 10 11 10 8 9 9 10 11 10
4 6 3 15 34 37 22 6 5 6 6 7 6 3 2 1 2 5 4 2 2 2 2 2 7 8 7 8 7 7 7 6 7 7 5 8 9 6 7 9 10 11 9 6 7 5 4 3 3 3 3 5 6 5 3 3 3 3 3 5 7 7 7 6 6 4 3 3 3 3 5 9 3 2 2 3 4 5 6 8 9 8 7 8 8 8 9 9
4 5 4 19 41 35 13 6 8 6 6 6 2 1 1 0 1 4 6 5 3 2 2 2 4 7 6 6 7 9 9 7 8 10 7 7 8 6 6 9 10 10 8 4 3 3 3 3 4 2 1 2 4 5 3 2 3 1 2 3 6 9 9 6 4 3 3 6 4 3 6 9 2 1 2 2 4 4 4 6 8 8 4 6 8 8 8 8
4 4 1 18 42 32 8 5 9 7 9 9 5 4 4 2 3 5 7 9 6 3 4 3 3 4 3 2 4 8 12 8 7 11 8 5 6 2 3 9 11 9 7 4 4 5 4 3 3 2 1 3 3 2 2 2 2 3 4 5 7 10 9 3 1 2 3 8 8 5 10 10 2 3 3 3 4 4 5 5 6 7 5 5 7 7 8 9
3 3 1 11 27 21 7 7 8 7 10 11 8 8 8 4 4 6 7 8 6 3 3 2 2 3 1 1 1 2 7 7 5 8 7 4 3 1 1 5 9 9 7 3 4 6 5 4 6 6 7 7 6 6 5 3 3 2 3 6 9 11 12 7 2 4 7 7 8 7 14 10 2 3 3 3 4 4 7 5 4 6 6 6 7 8 9 9
3 3 2 4 8 8 6 8 9 7 9 11 7 7 11 9 5 5 5 6 7 7 4 1 3 4 2 3 3 2 6 6 1 3 5 5 3 2 1 1 3 6 5 5 7 6 2 3 9 12 12 13 10 5 4 7 7 7 9 11 12 12 12 9 5 8 7 2 5 13 16 14 11 6 5 6 4 4 7 5 5 6 6 6 7 7 8 8
3 3 4 4 3 5 5 6 9 8 9 11 7 7 13 14 8 5 5 6 7 9 7 2 3 5 5 7 8 7 8 6 2 3 5 5 3 2 1 1 1 1 3 5 5 5 4 3 10 13 15 17 10 3 6 11 12 14 14 12 13 12 12 12 12 12 6 4 10 16 11 13 21 15 11 12 7 5 8 7 7 7 6 6 6 6 8 9
2 2 2 1 2 5 6 6 9 11 12 12 7 8 14 16 12 8 7 7 6 7 7 4 7 11 12 12 9 7 8 8 7 8 7 5 3 1 0 1 1 1 2 3 1 3 5 7 9 10 15 19 11 4 6 8 8 10 12 13 14 15 16 18 19 17 10 8 17 16 9 14 23 17 12 11 8 9 10 7 5 4 5 6 7 9 11 11
2 2 3 3 1 3 3 4 7 11 14 13 9 10 14 16 17 13 8 6 5 8 9 8 12 16 16 13 9 8 9 8 9 11 8 5 5 4 3 2 2 1 2 4 1 1 4 5 4 6 11 17 13 6 7 6 4 6 10 13 15 18 21 21 19 19 16 15 20 18 13 19 20 13 10 8 8 9 5 2 3 5 6 7 8 10 11 11
2 1 2 1 1 2 3 1 4 6 8 9 8 10 12 15 18 15 9 10 10 10 12 14 17 16 16 15 12 11 13 12 13 13 9 8 7 6 6 5 3 2 2 4 2 1 3 2 1 3 5 13 14 8 7 7 7 7 9 12 17 18 17 15 15 16 14 16 21 19 18 20 13 6 7 6 4 3 3 5 7 7 7 7 8 9 10 10
5 2 1 1 1 3 2 2 3 4 5 5 5 6 10 16 19 15 10 12 14 13 15 20 22 15 13 15 15 17 20 19 19 15 10 12 10 6 4 4 4 5 4 4 4 3 3 1 2 3 4 10 10 8 8 7 5 7 12 18 20 14 9 11 13 14 14 16 18 16 15 18 10 4 4 4 6 7 9 9 8 7 8 10 10 11 10 10
7 3 1 2 2 3 3 1 2 3 4 5 6 7 8 9 11 11 9 9 12 13 13 20 22 12 10 16 21 22 21 16 13 8 6 8 8 5 5 5 6 7 6 4 3 3 5 4 2 3 5 8 5 6 7 4 3 7 14 20 18 12 11 13 13 15 16 15 14 13 15 18 11 5 4 6 8 10 10 8 8 8 9 10 12 12 12 11
Wind_Direction
160 156 160 160 166 177 172 174 181 185 186 191 194 194 200 194 197 200 204 209 214 239 255 273 288 295 302 314 319 320 331 331 309 195 179 184 149 136 115 101 82 42 27 22 18 21 28 24 4 359 11 30 18 351 350 7 51 56 78 86 98 156 161 179 182 196 177 168 201 223 174 131 148 203 133 38 40 75 62 43 22 20 45 74 102 113 117 144
155 154 155 154 164 163 157 183 193 191 192 196 192 194 210 207 215 220 221 227 233 244 256 271 283 289 300 316 316 321 334 333 267 183 194 180 150 133 118 97 68 44 38 36 30 28 33 355 336 357 28 42 347 356 11 359 55 82 107 87 163 196 192 202 182 200 187 159 174 187 161 145 159 164 124 100 357 102 85 39 20 46 61 80 95 110 120 133
116 116 133 142 149 151 163 178 180 187 190 192 195 194 211 229 234 237 239 244 251 256 266 275 282 293 304 313 316 328 335 345 147 253 191 163 147 131 114 89 60 49 46 34 17 17 17 321 321 359 36 44 347 10 34 15 44 110 107 82 230 208 178 286 170 184 198 150 144 142 145 138 167 167 124 157 168 187 164 172 156 162 173 137 104 108 117 121
134 134 162 164 159 171 172 170 176 181 177 184 190 190 204 227 234 244 249 248 259 264 270 276 286 297 306 312 320 327 339 35 202 240 158 153 142 130 113 88 58 44 33 20 8 3 351 336 4 50 55 34 334 23 46 357 37 82 96 140 210 172 120 265 213 147 109 126 138 125 98 122 204 169 125 139 132 270 243 204 185 187 178 165 145 117 117 117
178 183 189 223 210 194 171 168 180 169 166 180 185 202 206 218 226 237 245 249 257 263 272 279 288 300 308 313 320 325 355 70 222 190 155 155 144 133 115 85 57 40 18 12 6 20 20 24 53 50 57 46 342 30 28 300 70 71 18 191 193 141 129 231 229 168 110 95 99 106 120 154 202 64 137 148 160 232 242 213 185 170 161 156 149 130 118 115
205 203 195 223 222 212 310 1 352 128 149 176 199 223 218 222 224 230 241 246 251 258 269 276 291 300 308 313 317 326 43 116 224 175 164 162 150 143 121 88 56 30 359 14 24 41 44 37 51 51 53 52 15 62 352 309 57 101 326 301 228 163 148 193 204 190 128 106 116 153 172 133 105 299 181 169 196 243 258 177 146 141 146 143 137 130 123 120
216 218 218 225 224 224 253 308 324 338 356 325 277 271 260 246 236 239 243 247 249 254 263 277 293 295 310 319 322 7 96 245 220 171 171 165 158 157 134 105 63 22 335 33 34 47 61 44 57 100 76 64 124 104 45 344 40 92 153 294 310 144 147 177 173 150 125 129 174 166 112 136 159 188 191 189 226 254 177 108 115 126 134 133 128 129 135 134
234 236 240 241 239 236 236 235 239 267 287 294 306 301 298 288 266 257 251 252 253 254 264 278 293 294 311 322 347 20 344 246 188 173 175 167 166 167 155 153 78 20 31 41 31 64 81 56 75 128 80 76 141 120 59 26 29 73 152 240 321 22 190 198 159 141 140 143 152 112 128 217 194 159 185 213 207 187 146 107 111 121 123 128 129 134 142 140
284 284 284 276 265 255 247 242 236 242 271 288 309 312 307 303 287 276 261 259 258 259 268 276 289 295 308 340 85 32 281 209 175 175 177 173 174 179 188 185 179 214 68 44 39 74 90 94 171 155 135 174 107 93 55 61 351 182 157 208 288 318 284 195 181 183 179 166 140 127 248 260 240 178 238 211 183 179 138 112 120 123 122 134 137 145 146 147
298 297 297 294 285 276 266 259 252 252 270 280 306 317 308 304 292 282 269 265 259 259 270 270 283 298 306 14 93 175 262 183 174 177 177 183 183 190 204 204 209 195 82 53 52 65 92 156 194 141 128 129 86 65 12 94 170 175 145 187 208 298 298 183 207 231 199 201 171 168 231 277 314 229 242 224 180 171 133 128 140 130 138 149 145 155 148 150
293 292 293 295 292 285 276 268 263 262 275 289 317 317 303 304 295 282 272 263 251 245 259 266 278 290 298 68 117 204 242 171 176 174 179 189 190 198 204 210 213 191 114 74 68 69 84 137 156 118 96 70 66 18 355 117 130 132 130 263 299 328 308 219 219 240 181 221 179 153 210 290 356 240 230 204 173 167 147 152 162 143 152 155 152 159 147 149
283 284 287 293 297 295 288 278 269 263 276 294 306 309 305 300 291 276 263 254 239 227 239 249 263 272 330 56 167 221 223 179 179 177 186 193 189 196 193 204 206 185 178 106 91 79 70 44 86 91 50 136 102 15 19 144 99 112 83 328 305 354 330 250 233 210 163 192 178 134 325 294 227 229 249 180 159 157 153 162 175 164 166 161 157 158 154 154
278 278 281 286 294 300 300 292 277 266 277 291 296 307 306 292 284 261 247 241 223 213 224 226 241 242 76 286 235 225 215 191 186 184 186 191 189 191 184 189 189 163 152 117 111 91 75 49 84 102 121 108 133 226 117 49 66 131 53 71 304 1 330 275 296 154 155 181 174 138 286 273 242 249 266 167 155 147 161 180 184 179 178 174 171 162 170 168
273 276 275 278 287 294 300 295 279 270 281 289 296 304 304 292 270 239 226 220 205 203 215 203 201 128 99 249 250 232 219 202 193 186 180 186 184 180 178 179 176 151 126 107 103 86 79 76 83 92 96 91 154 150 42 9 29 19 8 32 349 7 282 292 318 148 157 209 155 121 224 263 267 267 225 179 165 158 176 193 187 189 189 184 184 172 181 190
263 270 273 274 279 283 290 287 271 269 276 282 294 303 303 285 247 230 211 196 182 183 195 186 179 126 78 275 269 228 214 206 197 188 182 185 178 169 168 163 149 132 124 108 101 90 81 92 83 82 19 22 65 74 25 351 6 37 19 315 334 174 264 305 281 166 162 222 121 123 206 268 276 265 197 176 174 171 182 196 192 195 194 188 193 181 184 199
254 259 265 268 271 272 277 279 268 261 262 280 292 293 286 243 207 201 191 175 161 156 135 130 165 128 92 270 263 203 208 206 197 187 181 182 181 167 151 143 124 117 120 104 105 105 69 64 68 98 138 55 72 87 46 12 342 355 119 250 268 184 271 318 300 207 166 132 170 196 224 266 286 289 193 176 179 181 189 202 200 200 198 192 193 189 183 184
249 250 256 257 261 267 275 285 272 250 232 269 283 274 223 159 180 184 160 142 137 125 99 99 131 121 272 244 195 228 204 192 189 181 178 180 179 162 145 126 103 107 99 83 88 83 39 39 29 294 65 71 98 97 60 345 292 316 349 233 248 203 221 295 298 287 143 141 202 227 239 249 265 296 208 199 185 185 204 210 205 202 199 197 193 193 191 182
246 247 249 248 253 263 276 292 273 221 208 259 265 202 126 107 124 145 140 134 113 85 71 82 95 120 256 224 194 214 175 175 177 173 176 175 168 161 145 122 116 103 75 50 43 46 23 18 47 42 22 22 111 107 142 223 208 202 200 209 257 241 217 246 274 235 156 170 205 202 237 255 264 265 217 217 198 196 217 214 206 206 200 202 198 198 199 189
243 243 243 241 244 250 262 284 264 203 214 253 212 133 106 76 68 117 136 137 121 106 164 204 160 155 232 223 178 117 128 154 161 167 172 164 164 156 126 116 109 95 91 76 343 10 87 40 58 96 218 228 198 168 189 206 179 172 180 167 194 238 248 232 253 239 179 171 221 206 220 244 254 254 228 218 206 210 230 224 209 211 206 206 203 203 200 194
240 238 237 236 236 240 248 274 248 198 221 235 167 127 118 82 54 328 216 194 213 197 155 202 192 165 235 221 135 118 122 132 144 173 171 164 161 141 99 89 68 58 116 152 196 226 106 107 159 200 213 213 202 196 202 192 157 147 145 161 201 223 265 255 260 270 181 160 239 220 222 242 246 254 246 208 196 219 233 230 222 213 209 209 205 203 197 194
236 231 230 227 229 234 239 264 233 191 212 220 172 135 170 158 130 227 234 252 256 249 254 237 216 253 293 168 153 143 128 103 29 179 172 169 157 143 126 80 85 67 207 156 140 64 98 139 215 224 215 206 198 196 202 191 170 178 173 226 257 225 252 260 249 283 177 171 259 240 230 252 250 254 255 186 181 219 221 219 223 215 212 212 206 203 193 181
231 224 221 218 221 226 231 256 217 191 208 217 201 199 234 188 121 117 153 268 270 246 239 245 265 285 269 187 173 160 101 98 228 207 181 171 160 166 172 107 136 184 183 124 103 94 144 206 235 230 187 151 179 179 182 203 215 230 221 242 266 240 265 280 269 297 146 177 262 270 240 258 257 253 250 206 199 223 217 213 220 214 211 210 202 198 184 173
225 219 217 216 218 218 223 235 200 197 213 213 212 207 182 107 73 27 121 144 289 248 224 220 225 237 234 215 189 177 132 157 174 220 190 167 166 184 149 143 172 156 140 156 152 161 190 241 241 222 140 143 197 176 158 185 230 222 213 220 252 244 230 275 285 303 282 222 256 284 282 268 266 264 251 226 216 234 228 220 227 219 213 211 202 196 184 179
223 219 218 216 214 213 217 216 200 212 220 222 229 209 145 119 114 23 80 218 290 266 222 207 205 202 201 206 186 179 195 188 165 190 187 168 145 163 158 166 165 138 173 191 181 191 216 242 235 163 153 176 197 188 163 175 242 234 212 207 229 232 214 235 281 320 328 331 330 326 310 276 250 251 253 238 214 252 237 216 231 231 220 210 197 197 191 183
224 220 221 216 212 210 206 201 212 219 215 227 236 209 159 140 136 66 56 15 291 286 270 208 197 203 198 183 171 172 180 234 206 182 181 174 154 146 176 169 142 175 201 192 191 230 240 237 106 121 161 178 182 202 189 181 218 258 224 208 215 220 219 226 333 21 356 328 327 8 302 278 258 243 254 269 191 245 231 210 230 230 215 201 195 196 191 185
226 223 220 213 210 201 190 202 219 211 204 233 231 193 170 160 134 145 99 37 282 264 237 187 182 191 187 166 155 142 117 251 227 168 173 180 174 138 153 164 103 198 192 168 196 247 231 203 142 133 156 170 184 220 217 183 184 259 236 205 204 200 196 192 150 91 262 264 297 52 182 271 283 240 239 224 208 245 246 237 239 229 212 207 202 196 185 183
226 224 217 210 206 192 181 200 203 182 188 246 215 174 177 168 147 191 81 24 277 200 144 202 184 170 173 166 155 135 193 234 132 155 172 183 192 106 144 182 144 193 170 129 240 254 173 182 186 162 146 163 188 224 219 175 162 242 244 180 178 183 193 192 171 184 228 251 316 9 117 267 279 252 227 189 197 253 261 253 249 232 217 214 208 198 186 184
225 223 216 208 204 196 191 180 175 174 181 215 172 167 174 165 160 167 88 332 271 120 131 254 95 146 148 160 159 144 227 195 121 185 187 172 196 68 176 199 173 183 174 152 221 267 147 174 194 184 171 189 202 212 185 155 168 242 212 139 147 162 172 150 141 174 298 15 297 299 107 262 271 266 324 176 201 248 255 249 248 232 217 215 208 197 184 182
225 220 216 210 204 201 201 188 180 190 191 153 158 164 161 160 154 71 90 215 259 75 114 119 115 141 90 146 170 149 37 46 138 215 55 146 195 65 178 200 161 176 198 198 214 247 146 192 193 176 185 206 203 205 166 161 191 215 128 97 74 77 79 78 107 120 43 327 240 238 178 241 268 229 99 64 203 234 244 248 250 231 214 211 199 188 180 178
223 219 216 209 201 198 198 206 206 196 185 163 160 155 147 146 110 89 189 221 75 111 108 114 166 169 142 151 179 148 86 46 15 106 59 110 95 38 161 158 100 145 227 263 242 251 314 264 194 168 188 189 148 94 164 175 173 136 100 67 48 35 40 45 55 83 34 266 226 209 189 205 273 253 157 192 203 218 230 250 263 235 206 203 191 184 182 180
223 221 217 208 201 195 191 208 208 189 179 168 155 148 140 101 69 167 202 243 14 180 137 165 196 140 155 162 171 175 125 68 166 146 142 157 93 62 10 101 84 105 273 280 272 306 330 319 252 227 172 121 99 82 31 111 137 116 90 84 74 352 11 20 358 49 233 256 224 208 192 192 242 255 213 240 259 236 218 235 256 242 208 199 191 187 185 181
226 224 220 212 206 197 194 205 195 182 175 163 154 151 137 100 199 209 205 56 288 202 165 178 186 154 163 171 180 176 145 136 189 167 163 166 172 185 196 191 166 141 235 239 247 319 284 240 249 309 214 136 116 106 34 17 89 112 100 111 120 317 359 342 309 3 229 263 268 215 181 204 244 245 236 258 268 250 222 227 248 244 215 201 192 188 184 178
230 226 219 213 207 199 199 203 187 177 172 164 160 161 136 164 207 198 194 199 207 195 149 128 143 157 161 168 193 171 138 180 181 175 178 159 182 211 223 222 190 161 194 196 193 198 262 291 293 145 268 191 156 164 172 200 192 170 146 144 159 167 183 247 262 274 255 271 299 215 165 247 277 259 227 236 249 249 234 234 242 239 223 209 196 184 176 174
233 227 216 211 210 204 200 198 185 177 171 164 163 179 176 199 202 181 200 217 209 93 105 119 125 145 165 179 196 168 163 225 174 154 165 148 174 217 234 243 221 171 100 145 175 181 215 287 208 178 214 192 182 190 174 142 168 190 165 151 172 169 172 210 215 230 252 281 299 260 183 202 220 259 239 240 264 276 261 255 249 245 231 198 178 169 168 177
237 228 215 207 210 207 199 194 186 177 170 164 168 185 192 205 190 186 205 211 198 74 55 115 119 136 195 239 245 185 171 209 174 145 162 173 190 204 201 217 204 162 127 174 214 165 196 266 234 203 190 172 185 198 131 111 150 221 140 131 197 187 172 207 203 183 181 290 281 219 224 221 207 256 260 256 280 277 278 292 281 252 213 149 162 173 175 181
243 229 213 202 206 206 197 192 185 175 168 165 182 194 206 204 187 186 190 187 190 145 107 102 101 144 203 223 242 212 180 130 152 156 201 205 220 210 201 216 195 180 180 181 191 156 176 278 269 267 356 182 186 171 134 146 183 178 144 183 212 169 153 203 265 82 96 256 260 197 243 281 311 275 252 217 247 265 287 290 269 250 194 163 185 186 183 185
235 220 210 206 207 205 197 188 180 175 171 175 193 200 211 210 190 173 176 179 179 156 139 173 183 173 192 200 214 205 183 133 154 173 198 195 240 210 198 230 196 193 202 192 205 201 173 260 279 148 207 256 215 117 70 23 123 131 181 202 177 69 97 137 247 346 43 254 266 214 240 271 272 271 308 116 232 257 267 260 256 259 214 197 202 191 188 188
212 206 219 217 211 204 196 185 178 176 177 187 202 210 203 207 200 180 174 167 163 165 177 203 201 178 182 194 204 187 176 178 176 186 187 187 243 203 180 206 209 201 207 195 222 248 167 232 289 102 192 295 9 125 80 1 74 130 181 182 134 136 223 122 172 232 194 248 279 257 250 257 216 225 309 158 215 234 242 241 244 244 221 208 204 189 187 183
202 219 250 222 212 204 191 182 178 180 191 191 204 216 204 205 205 182 175 176 168 172 195 212 202 184 192 188 178 175 185 187 172 179 189 188 232 210 177 188 209 206 201 183 196 222 146 207 269 341 251 335 24 167 189 242 43 66 118 155 124 143 182 168 170 180 164 224 278 298 288 257 216 190 184 204 212 215 224 226 231 237 224 207 197 187 186 185
194 244 258 204 206 201 185 179 181 193 199 199 207 208 192 198 206 193 190 193 185 179 201 210 193 182 197 190 177 177 188 191 175 183 205 190 208 239 194 182 184 194 187 185 198 188 127 213 238 329 348 179 196 206 190 180 170 160 156 169 189 136 119 169 199 144 137 175 229 264 280 268 232 168 187 206 210 207 211 212 224 236 223 199 195 190 189 188
185 241 241 185 191 186 177 177 197 199 197 215 219 212 192 180 185 194 194 82 51 235 217 204 195 188 179 181 196 188 176 184 183 189 217 203 200 233 208 185 172 157 148 183 209 195 171 198 180 169 247 208 229 252 215 193 182 181 187 189 187 169 145 177 234 196 149 193 189 191 271 270 236 164 194 205 205 209 212 211 227 239 212 199 203 192 189 189
195 225 199 176 179 172 166 192 216 189 210 221 213 213 199 140 143 183 186 94 42 312 317 217 201 198 184 184 193 179 167 181 190 191 214 214 206 212 210 188 165 150 142 171 212 197 151 131 157 193 213 215 243 285 266 203 155 145 199 191 174 176 175 182 216 208 158 227 201 122 276 274 241 168 233 237 231 240 234 217 232 247 213 196 206 192 187 191
216 215 154 171 176 168 162 220 198 191 225 214 189 332 228 220 103 171 186 189 177 170 206 247 211 204 201 187 180 176 177 187 195 198 212 221 215 214 193 168 149 149 155 169 210 182 125 151 197 223 305 303 301 317 345 34 82 113 243 179 170 198 200 187 200 173 159 223 201 123 258 264 285 285 260 272 270 273 267 231 231 252 231 186 194 188 182 187
208 202 124 179 178 172 169 214 194 200 215 207 202 201 209 240 210 191 191 197 197 154 165 216 221 208 209 161 160 182 188 192 203 206 207 211 222 234 151 161 157 159 176 188 179 174 175 183 178 175 280 326 326 296 289 316 184 201 218 192 191 201 196 177 78 107 208 221 174 165 247 251 310 325 307 347 326 290 270 249 232 245 239 200 189 179 180 184
199 182 324 193 184 180 194 211 198 202 203 204 202 187 193 221 213 204 197 197 205 174 161 206 175 144 134 141 85 189 203 206 204 205 207 208 233 316 72 179 183 180 191 187 154 166 179 172 166 182 212 224 223 219 216 195 174 207 204 186 197 200 190 189 190 196 232 219 154 191 245 254 329 330 301 332 335 291 274 271 252 241 231 208 190 181 182 183
220 199 186 199 201 204 216 207 205 212 202 199 198 183 196 210 208 195 191 196 206 201 202 226 134 140 147 177 187 219 232 242 207 174 202 204 218 275 343 212 200 191 181 148 145 152 142 187 193 197 213 223 222 217 172 136 149 206 206 189 198 204 194 193 210 217 217 167 182 221 238 258 268 253 253 274 266 260 274 282 272 253 235 214 199 188 184 181
232 230 188 174 218 233 233 219 209 213 201 191 185 177 195 209 210 183 189 204 199 198 211 211 168 188 188 182 196 207 215 229 224 191 209 203 207 287 307 76 100 200 162 153 159 134 109 224 216 207 222 231 224 177 158 160 175 201 201 192 200 201 191 196 214 218 178 132 242 238 216 248 261 249 242 258 253 244 255 252 249 242 221 205 188 176 183 185
231 267 249 215 217 218 229 226 208 208 204 191 180 179 193 203 204 188 193 209 198 191 203 208 203 208 203 193 195 199 198 204 213 216 215 197 167 162 332 125 204 302 103 143 157 107 147 216 221 206 229 240 229 149 156 177 180 192 196 197 201 198 198 205 215 219 192 190 245 247 193 224 253 254 245 246 233 232 239 235 231 211 186 184 179 184 193 189
210 268 288 298 275 217 238 223 199 208 208 195 189 195 195 199 203 201 189 182 198 202 196 206 215 212 210 206 193 194 199 194 208 216 204 183 176 167 163 181 230 314 91 131 132 104 170 215 209 187 228 248 241 188 166 187 182 190 201 204 205 206 206 208 215 221 215 219 242 250 239 243 253 253 242 232 217 225 226 174 179 185 183 187 189 198 203 195
192 233 253 274 258 240 295 301 172 198 215 206 203 205 199 200 204 206 193 173 184 198 195 210 221 212 209 211 204 210 212 201 212 215 183 168 193 191 188 192 173 157 137 135 138 180 194 209 102 133 221 254 248 210 181 198 208 219 225 220 218 216 212 213 220 223 222 230 241 247 254 259 255 222 225 224 173 168 177 190 209 201 183 183 193 208 210 202
224 295 200 198 274 213 245 285 171 184 217 212 212 210 205 208 205 201 203 195 193 193 190 205 217 213 206 210 209 217 220 214 218 217 179 177 197 192 197 200 142 137 155 146 138 153 173 185 45 99 207 251 245 209 201 209 216 244 252 241 230 215 204 213 218 218 215 223 237 243 250 256 246 166 190 202 163 192 213 211 215 207 184 181 194 207 208 202
217 282 198 194 263 201 176 251 190 198 217 197 198 205 206 217 214 201 203 207 207 206 196 202 211 209 198 207 211 218 221 215 215 213 173 184 196 173 176 186 154 149 159 154 143 146 156 164 160 157 208 251 237 174 177 179 190 237 245 242 229 201 199 216 221 224 218 214 225 230 235 249 246 168 191 220 200 215 225 209 207 210 195 190 197 200 198 197